Tracking 17632 objects as of 2-May-2016
HD Live streaming from Space Station
objects crossing your sky now

DELTA 1 DEB

Track DELTA 1 DEB now!
10-day predictions


NORAD ID: 15205
Int'l Code: 1984-088E
Perigee: 555.8 km
Apogee: 3,859.3 km
Inclination: 28.7 °
Period: 131.8 minutes
Semi major axis: 8578 km
RCS: 0.0578 m2 (small)
Launch date: August 16, 1984
Source: United States (US)
Launch site: AIR FORCE EASTERN TEST RANGE (AFETR)

Note: This is SATELLITE DEBRIS
Your satellite tracking list
Your tracking list is empty





NASA's NSSDC Master Catalog

Two Line Element Set (TLE):
1 15205U 84088E   16122.50985519  .00000461  00000-0  24764-3 0  9992
2 15205  28.7271 215.3802 1925447 204.3076 281.7770 10.92652980832789
Source of the keplerian elements: AFSPC

N2YO: 359